EW3803 Sines PT current weather conditions

sailwx.info

Wind from 309 at 6 knots gusting 12

Air temperature 21.1° C
Dewpoint 17.9° C

Last reported at 2020-Aug-08 18:00 UTC.
Time now 2020-Aug-08 18:19 UTC

Location: N 37°58' W 008°51'.
View on Google Maps.

See reports from other nearby stations

  
Tides and Currents Weather Stations Pressure Air Temp Water Temp Dewpoint Dewpoint Depression Visibility Wind Speed Wind Dir Waves Ship Positions
date/time (UTC)wind fromknots sea level pressurealtimeterstation pressurevisibilityair tempwater tempwave heightnotes
2020-Aug-08 18:00 309 6 gusting 12 21.1
2020-Aug-08 17:45 302 6 gusting 12 21.1
2020-Aug-08 17:30 325 6 gusting 11 21.1
2020-Aug-08 17:17 325 7 gusting 13 21.1
2020-Aug-08 17:01 303 6 gusting 13 21.1
2020-Aug-08 16:48 331 8 gusting 12 21.7
2020-Aug-08 16:31 317 6 gusting 12 21.1
2020-Aug-08 16:16 340 7 gusting 13 21.1
2020-Aug-08 16:01 326 7 gusting 12 21.7
2020-Aug-08 15:47 333 6 gusting 12 21.7
2020-Aug-08 15:31 297 6 gusting 12 21.7
2020-Aug-08 15:16 316 7 gusting 12 21.7
2020-Aug-08 14:46 323 6 gusting 11 21.7
2020-Aug-08 14:30 345 7 gusting 11 21.7
2020-Aug-08 14:16 290 7 gusting 13 21.1
2020-Aug-08 14:01 300 7 gusting 13 21.1
2020-Aug-08 13:46 325 7 gusting 15 21.1
2020-Aug-08 13:31 265 6 gusting 12 21.7
2020-Aug-08 13:15 297 6 gusting 12 21.1
2020-Aug-08 13:01 279 6 gusting 12 21.7
2020-Aug-08 12:45 305 5 gusting 10 22.2
2020-Aug-08 12:32 293 7 gusting 11 21.7
2020-Aug-08 12:15 316 8 gusting 13 21.7
2020-Aug-08 12:00 331 7 gusting 11 21.7
2020-Aug-08 11:46 317 7 gusting 13 21.1
2020-Aug-08 11:30 323 6 gusting 11 21.1
2020-Aug-08 11:15 269 6 gusting 10 21.1
2020-Aug-08 11:00 317 7 gusting 10 21.1
2020-Aug-08 10:46 333 6 gusting 10 21.7
2020-Aug-08 10:30 336 4 gusting 10 21.7
2020-Aug-08 10:15 296 6 gusting 11 21.7
2020-Aug-08 10:01 332 7 gusting 11 21.7
2020-Aug-08 09:45 340 6 gusting 10 21.1
2020-Aug-08 09:30 360 5 gusting 10 20.6
2020-Aug-08 09:15 339 6 gusting 9 20.6
2020-Aug-08 09:00 351 5 gusting 10 20.0
2020-Aug-08 08:46 337 6 gusting 10 19.4
2020-Aug-08 08:30 009 6 gusting 9 18.9
2020-Aug-08 08:15 009 5 gusting 11 18.3
2020-Aug-08 08:00 018 6 gusting 9 17.8
2020-Aug-08 07:45 318 5 gusting 8 17.8
2020-Aug-08 07:30 026 4 gusting 6 17.2
2020-Aug-08 07:15 340 3 gusting 5 17.2
2020-Aug-08 07:00 317 1 gusting 2 17.2
2020-Aug-08 06:45 319 0 gusting 2 16.7
2020-Aug-08 06:32 321 16.1
2020-Aug-08 06:16 321 0 gusting 2 16.1
2020-Aug-08 06:01 333 1 gusting 4 16.1
2020-Aug-08 05:47 325 2 gusting 4 16.7
2020-Aug-08 05:31 035 3 gusting 6 16.7
2020-Aug-08 05:18 067 1 gusting 4 16.7
2020-Aug-08 05:01 067 1 gusting 4 16.7
2020-Aug-08 04:46 067 2 gusting 4 16.7
2020-Aug-08 04:31 076 2 gusting 3 16.1
2020-Aug-08 04:16 076 0 gusting 3 16.7
2020-Aug-08 04:02 069 1 gusting 2 16.7
2020-Aug-08 03:46 310 0 gusting 1 16.7
2020-Aug-08 03:31 310 16.7
2020-Aug-08 03:16 313 16.7
2020-Aug-08 03:01 313 16.7
2020-Aug-08 02:46 313 0 gusting 2 16.7
2020-Aug-08 02:31 313 16.7
2020-Aug-08 02:17 313 0 gusting 2 16.7
2020-Aug-08 02:02 217 0 gusting 1 16.7
2020-Aug-08 01:46 217 16.7
2020-Aug-08 01:30 217 16.7
2020-Aug-08 01:16 217 17.2
2020-Aug-08 01:00 202 17.2
2020-Aug-08 00:45 196 1 gusting 4 17.2
2020-Aug-08 00:31 177 1 gusting 4 17.2
2020-Aug-08 00:16 159 1 gusting 3 17.2
2020-Aug-08 00:00 167 1 gusting 5 17.2
2020-Aug-07 23:46 201 3 gusting 6 17.2
2020-Aug-07 23:30 192 5 gusting 11 17.2
2020-Aug-07 23:15 190 5 gusting 7 17.8
2020-Aug-07 23:01 167 4 gusting 9 17.8
2020-Aug-07 22:46 193 4 gusting 8 17.8
2020-Aug-07 22:31 213 3 gusting 6 18.3
2020-Aug-07 22:16 195 1 gusting 5 18.3
2020-Aug-07 22:00 300 18.3
2020-Aug-07 21:45 300 18.3
2020-Aug-07 21:30 300 18.3
2020-Aug-07 21:15 304 18.3
2020-Aug-07 21:00 305 0 gusting 1 18.3
2020-Aug-07 20:45 306 0 gusting 4 18.3
2020-Aug-07 20:30 264 0 gusting 5 18.9
2020-Aug-07 20:15 261 0 gusting 3 18.9
2020-Aug-07 20:00 236 2 gusting 6 18.9
2020-Aug-07 19:45 246 5 gusting 8 19.4
2020-Aug-07 19:30 220 4 gusting 8 21.1
2020-Aug-07 19:15 309 0 gusting 2 22.8
2020-Aug-07 19:00 322 1 gusting 3 22.8
2020-Aug-07 18:45 038 0 gusting 4 22.8
2020-Aug-07 18:30 329 3 gusting 6 22.2
2020-Aug-07 18:15 351 3 gusting 7 21.7
2020-Aug-07 18:00 009 3 gusting 8 21.7
2020-Aug-07 17:45 347 6 gusting 11 21.1
2020-Aug-07 17:30 331 5 gusting 11 21.1
2020-Aug-07 17:15 351 6 gusting 12 21.1
2020-Aug-07 17:02 343 7 gusting 12 21.1
2020-Aug-07 17:00 333 6 gusting 12 21.1
2020-Aug-07 16:47 294 6 gusting 13 21.7
2020-Aug-07 16:31 289 3 gusting 9 22.2
2020-Aug-07 16:18 300 6 gusting 11 22.2
2020-Aug-07 16:02 321 6 gusting 11 22.8
2020-Aug-07 15:46 290 5 gusting 10 22.8
2020-Aug-07 15:32 288 7 gusting 12 22.8
2020-Aug-07 15:16 324 6 gusting 10 23.9
2020-Aug-07 15:01 298 4 gusting 10 23.9
2020-Aug-07 14:46 333 6 gusting 11 23.9
2020-Aug-07 14:31 301 7 gusting 11 23.9
2020-Aug-07 14:16 297 6 gusting 11 23.9
2020-Aug-07 14:01 300 6 gusting 11 23.9
2020-Aug-07 13:47 316 6 gusting 11 23.3
2020-Aug-07 13:30 318 8 gusting 13 22.8
2020-Aug-07 13:16 304 7 gusting 12 23.3
2020-Aug-07 13:02 273 6 gusting 10 22.8
2020-Aug-07 12:45 311 6 gusting 10 23.3
2020-Aug-07 12:31 288 6 gusting 11 23.3
2020-Aug-07 12:17 304 5 gusting 9 23.9
2020-Aug-07 12:00 284 4 gusting 7 23.9
2020-Aug-07 11:45 294 3 gusting 9 23.3
2020-Aug-07 11:31 284 6 gusting 10 23.3
2020-Aug-07 11:15 301 6 gusting 10 23.3
2020-Aug-07 11:00 294 4 gusting 9 23.3
2020-Aug-07 10:46 315 6 gusting 9 23.3
2020-Aug-07 10:30 343 4 gusting 8 23.3
2020-Aug-07 10:15 263 4 gusting 7 23.3
2020-Aug-07 10:00 333 4 gusting 7 22.8
2020-Aug-07 09:45 292 3 gusting 7 22.2
2020-Aug-07 09:30 298 3 gusting 6 21.7
2020-Aug-07 09:15 298 3 gusting 7 21.7
2020-Aug-07 09:00 314 4 gusting 8 21.7
2020-Aug-07 08:45 348 5 gusting 8 21.1
2020-Aug-07 08:30 343 6 gusting 9 21.1
2020-Aug-07 08:15 327 6 gusting 9 20.6
2020-Aug-07 08:01 337 5 gusting 9 20.0
2020-Aug-07 07:46 351 4 gusting 8 18.9
2020-Aug-07 07:31 355 3 gusting 7 18.3
2020-Aug-07 07:16 344 3 gusting 6 18.3
2020-Aug-07 07:00 336 2 gusting 5 17.8
2020-Aug-07 06:47 340 2 gusting 4 17.2
2020-Aug-07 06:00 331 17.2
2020-Aug-07 05:46 313 0 gusting 2 17.2
2020-Aug-07 05:31 309 1 gusting 3 17.8
2020-Aug-07 05:16 342 2 gusting 3 17.8
2020-Aug-07 05:00 037 1 gusting 2 18.3
2020-Aug-07 04:45 059 2 gusting 6 17.8
2020-Aug-07 04:31 026 2 gusting 4 17.8
2020-Aug-07 04:16 026 2 gusting 4 17.8
2020-Aug-07 04:00 026 2 gusting 4 17.2
2020-Aug-07 03:45 338 0 gusting 3 17.8
2020-Aug-07 03:30 277 17.2
2020-Aug-07 03:15 277 17.2
2020-Aug-07 03:01 327 17.2
2020-Aug-07 02:45 255 0 gusting 1 17.2
2020-Aug-07 02:31 223 17.2
2020-Aug-07 02:15 223 17.2
2020-Aug-07 02:00 222 0 gusting 6 17.2
2020-Aug-07 01:45 190 4 gusting 6 17.2
2020-Aug-07 01:30 188 6 gusting 7 17.8
2020-Aug-07 01:15 187 4 gusting 8 17.8
2020-Aug-07 01:01 182 5 gusting 8 17.8
2020-Aug-07 00:45 156 3 gusting 6 17.8
2020-Aug-07 00:30 189 3 gusting 6 17.8
2020-Aug-07 00:15 174 4 gusting 6 17.8
2020-Aug-07 00:00 166 3 gusting 6 17.8
2020-Aug-06 23:45 194 3 gusting 6 17.8
2020-Aug-06 23:30 171 3 gusting 6 17.8
2020-Aug-06 23:15 151 3 gusting 6 18.3
2020-Aug-06 23:00 182 2 gusting 5 18.3
2020-Aug-06 22:32 183 1 gusting 5 18.3
2020-Aug-06 22:17 201 3 gusting 6 18.3
2020-Aug-06 22:01 192 3 gusting 6 18.3
2020-Aug-06 21:46 181 3 gusting 6 18.3
2020-Aug-06 21:32 211 2 gusting 6 18.3
2020-Aug-06 21:16 208 3 gusting 6 18.3
2020-Aug-06 21:01 205 5 gusting 6 18.9
2020-Aug-06 20:47 192 3 gusting 6 18.9
2020-Aug-06 20:31 215 3 gusting 6 20.0
2020-Aug-06 20:17 219 2 gusting 4 20.6
2020-Aug-06 20:02 317 20.0
2020-Aug-06 19:46 317 0 gusting 2 20.0
2020-Aug-06 19:31 317 1 gusting 3 20.6
2020-Aug-06 19:16 330 2 gusting 4 20.6
2020-Aug-06 19:01 336 4 gusting 7 21.1
2020-Aug-06 18:46 019 2 gusting 6 21.7
2020-Aug-06 18:32 009 1 gusting 5 21.7
2020-Aug-06 18:15 323 5 gusting 8 21.1
2020-Aug-06 18:00 312 6 gusting 10 21.7